FW1865 Weather Reports


Display with metric or nautical units.
time (UTC)temp
F
wind
direction
speed
MPH
gust
MPH
rain 1hr
in
rain 24hr
in
rain mn
in
humidity
%
barometer
mb
20201126210329 37 290 5.0 12.0 0.00 0.00 0.00 84 1036.9
20201126205824 37 283 6.0 12.0 0.00 0.00 0.00 84 1036.9
20201126205325 37 310 4.0 7.0 0.00 0.00 0.00 84 1036.8
20201126204831 37 301 4.0 8.0 0.00 0.00 0.00 85 1036.8
20201126204314 37 330 4.0 9.0 0.00 0.00 0.00 85 1036.7
20201126203821 37 292 4.0 9.0 0.00 0.00 0.00 84 1036.8
20201126203320 37 325 4.0 6.0 0.00 0.00 0.00 85 1036.7
20201126202820 37 315 2.0 6.0 0.00 0.00 0.00 85 1036.7
20201126202318 37 33 2.0 10.0 0.00 0.00 0.00 85 1036.6
20201126201819 37 273 6.0 10.0 0.00 0.00 0.00 84 1036.6
20201126201322 37 269 4.0 8.0 0.00 0.00 0.00 84 1036.6
20201126200824 37 327 4.0 8.0 0.00 0.00 0.00 84 1036.6
20201126200327 37 292 2.0 5.0 0.00 0.00 0.00 85 1036.5
20201126195830 37 260 3.0 6.0 0.00 0.00 0.00 84 1036.3
20201126195314 37 285 4.0 6.0 0.00 0.00 0.00 85 1036.4
20201126194820 37 268 4.0 8.0 0.00 0.00 0.00 84 1036.3
20201126194323 37 271 4.0 8.0 0.00 0.00 0.00 84 1036.4
20201126193827 36 289 6.0 9.0 0.00 0.00 0.00 85 1036.3
20201126193328 36 273 6.0 9.0 0.00 0.00 0.00 84 1036.4
20201126192836 36 264 5.0 8.0 0.00 0.00 0.00 85 1036.4
20201126192318 36 229 4.0 8.0 0.00 0.00 0.00 85 1036.4
20201126191824 36 293 5.0 10.0 0.00 0.00 0.00 85 1036.4
20201126191319 36 275 6.0 10.0 0.00 0.00 0.00 85 1036.3
20201126190820 36 285 4.0 9.0 0.00 0.00 0.00 85 1036.2
20201126190322 36 289 4.0 10.0 0.00 0.00 0.00 85 1036.1
20201126185821 36 287 6.0 10.0 0.00 0.00 0.00 85 1036.1
20201126185325 36 282 4.0 9.0 0.00 0.00 0.00 85 1036.1
20201126184833 36 286 5.0 11.0 0.00 0.00 0.00 85 1036.1
20201126184314 36 243 4.0 7.0 0.00 0.00 0.00 86 1036.2
20201126183820 36 296 4.0 8.0 0.00 0.00 0.00 85 1036.2
20201126183323 36 254 4.0 8.0 0.00 0.00 0.00 85 1036.0
20201126182825 36 248 4.0 6.0 0.00 0.00 0.00 86 1036.1
20201126182331 36 249 3.0 7.0 0.00 0.00 0.00 86 1036.1
20201126181831 36 274 3.0 7.0 0.00 0.00 0.00 86 1035.9
20201126181328 36 221 4.0 7.0 0.00 0.00 0.00 86 1036.0
20201126180831 36 297 5.0 7.0 0.00 0.00 0.00 86 1036.0
20201126180314 36 261 3.0 5.0 0.00 0.00 0.00 86 1036.0
20201126175815 36 279 2.0 6.0 0.00 0.00 0.00 86 1036.0
20201126175321 36 294 4.0 7.0 0.00 0.00 0.00 86 1036.0
20201126174824 36 286 3.0 7.0 0.00 0.00 0.00 86 1036.0
20201126174330 36 280 2.0 8.0 0.00 0.00 0.00 86 1036.0
20201126173831 36 223 4.0 8.0 0.00 0.00 0.00 86 1036.2
20201126173313 36 272 2.0 5.0 0.00 0.00 0.00 86 1036.2
20201126172829 35 274 2.0 8.0 0.00 0.00 0.00 86 1036.1
20201126172327 35 282 4.0 8.0 0.00 0.00 0.00 86 1036.1
20201126171830 35 210 4.0 7.0 0.00 0.00 0.00 86 1036.1
20201126171313 35 242 5.0 8.0 0.00 0.00 0.00 86 1036.1
20201126170819 35 225 5.0 8.0 0.00 0.00 0.00 86 1036.1
20201126170321 35 258 2.0 6.0 0.00 0.00 0.00 86 1036.2
20201126165822 35 263 2.0 5.0 0.00 0.00 0.00 87 1036.1
20201126165320 35 263 1.0 6.0 0.00 0.00 0.00 86 1036.2
20201126164822 35 280 3.0 7.0 0.00 0.00 0.00 86 1036.0
20201126164324 35 257 3.0 6.0 0.00 0.00 0.00 86 1036.0
20201126163827 35 237 4.0 6.0 0.00 0.00 0.00 86 1036.0
20201126163330 35 240 2.0 8.0 0.00 0.00 0.00 86 1036.0
20201126162832 35 295 5.0 8.0 0.00 0.00 0.00 86 1036.1
20201126162330 35 275 5.0 9.0 0.00 0.00 0.00 86 1036.0
20201126161824 35 235 6.0 10.0 0.00 0.00 0.00 86 1035.8
20201126161328 35 232 7.0 10.0 0.00 0.00 0.00 86 1035.8
20201126160831 35 251 6.0 10.0 0.00 0.00 0.00 86 1035.7
20201126160316 35 290 3.0 6.0 0.00 0.00 0.00 86 1035.7
20201126155818 35 292 3.0 8.0 0.00 0.00 0.00 86 1035.6
20201126155323 35 237 5.0 9.0 0.00 0.00 0.00 86 1035.7
20201126154827 35 268 5.0 9.0 0.00 0.00 0.00 87 1035.6
20201126154327 35 220 2.0 6.0 0.00 0.00 0.00 87 1035.7
20201126153828 35 237 3.0 9.0 0.00 0.00 0.00 87 1035.6
20201126153335 35 215 4.0 9.0 0.00 0.00 0.00 87 1035.4
20201126152832 35 260 6.0 9.0 0.00 0.00 0.00 87 1035.4
20201126152330 35 256 3.0 6.0 0.00 0.00 0.00 87 1035.4
20201126151816 35 230 4.0 5.0 0.00 0.00 0.00 87 1035.4
20201126151315 35 239 2.0 3.0 0.00 0.00 0.00 87 1035.3
20201126150823 35 227 2.0 7.0 0.00 0.00 0.00 87 1035.4
20201126150323 35 278 1.0 11.0 0.00 0.00 0.00 87 1035.4
20201126145825 35 228 4.0 11.0 0.00 0.00 0.00 87 1035.4
20201126145329 35 236 3.0 12.0 0.00 0.00 0.00 87 1035.4
20201126144816 35 272 3.0 14.0 0.00 0.00 0.00 87 1035.5
20201126144315 35 234 8.0 14.0 0.00 0.00 0.00 87 1035.4
20201126143818 35 244 8.0 12.0 0.00 0.00 0.00 87 1035.3
20201126143322 35 220 4.0 13.0 0.00 0.00 0.00 87 1035.3
20201126142820 35 281 9.0 15.0 0.00 0.00 0.00 87 1035.3
20201126142315 35 214 6.0 15.0 0.00 0.00 0.00 87 1035.2
20201126141820 35 225 9.0 13.0 0.00 0.00 0.00 87 1035.1
20201126141323 35 221 8.0 13.0 0.00 0.00 0.00 87 1035.2
20201126140821 35 193 5.0 11.0 0.00 0.00 0.00 87 1035.0
20201126140324 35 224 6.0 11.0 0.00 0.00 0.00 87 1034.9
20201126135823 35 230 5.0 9.0 0.00 0.00 0.00 87 1034.8
20201126135324 35 231 4.0 7.0 0.00 0.00 0.00 87 1034.6
20201126134825 35 223 1.0 5.0 0.00 0.00 0.00 88 1034.7
20201126134313 34 217 0.0 4.0 0.00 0.00 0.00 88 1034.7
20201126133815 34 190 0.0 4.0 0.00 0.00 0.00 88 1034.4
20201126133318 34 217 1.0 3.0 0.00 0.00 0.00 88 1034.5
20201126132822 34 146 1.0 2.0 0.00 0.00 0.00 87 1034.5
20201126132324 34 125 0.0 6.0 0.00 0.00 0.00 87 1034.5
20201126131830 34 142 2.0 6.0 0.00 0.00 0.00 87 1034.5
20201126131327 34 228 0.0 3.0 0.00 0.00 0.00 87 1034.5
20201126130832 34 219 1.0 4.0 0.00 0.00 0.00 87 1034.4
20201126130320 34 213 0.0 5.0 0.00 0.00 0.00 86 1034.2
20201126125819 34 190 2.0 6.0 0.00 0.00 0.00 86 1034.1
20201126125322 34 53 1.0 5.0 0.00 0.00 0.00 86 1034.0
20201126124828 34 186 2.0 7.0 0.00 0.00 0.00 86 1034.2
20201126124328 35 225 2.0 7.0 0.00 0.00 0.00 86 1034.2
20201126123813 35 157 1.0 5.0 0.00 0.00 0.00 86 1034.0
20201126123315 35 168 2.0 7.0 0.00 0.00 0.00 85 1034.0
20201126122817 35 207 2.0 8.0 0.00 0.00 0.00 85 1034.0
20201126122319 35 145 2.0 8.0 0.00 0.00 0.00 85 1034.1
20201126121814 35 142 1.0 7.0 0.00 0.00 0.00 85 1034.2
20201126121318 35 140 3.0 5.0 0.00 0.00 0.00 85 1034.2
20201126120823 35 133 2.0 4.0 0.00 0.00 0.00 85 1034.1
20201126120323 35 202 2.0 4.0 0.00 0.00 0.00 85 1034.2
20201126115828 36 149 0.0 1.0 0.00 0.00 0.00 84 1034.2
20201126115324 36 149 0.0 6.0 0.00 0.00 0.00 84 1034.2
20201126114831 36 225 2.0 5.0 0.00 0.00 0.00 83 1034.0
20201126114334 36 162 3.0 11.0 0.00 0.00 0.00 83 1034.0
20201126113827 36 253 4.0 11.0 0.00 0.00 0.00 83 1034.0
20201126113320 36 226 4.0 8.0 0.00 0.00 0.00 83 1034.0
20201126112822 36 228 1.0 8.0 0.00 0.00 0.00 84 1034.0
20201126112324 37 247 1.0 8.0 0.00 0.00 0.00 83 1034.2
20201126111828 37 255 1.0 10.0 0.00 0.00 0.00 83 1034.1
20201126111328 37 227 4.0 10.0 0.00 0.00 0.00 83 1034.1
20201126110832 37 220 5.0 10.0 0.00 0.00 0.00 83 1034.3
20201126110313 37 237 5.0 10.0 0.00 0.00 0.00 83 1034.2
20201126105826 37 202 3.0 7.0 0.00 0.00 0.00 84 1034.1
20201126105320 36 213 3.0 7.0 0.00 0.00 0.00 85 1034.1
20201126104830 36 191 2.0 5.0 0.00 0.00 0.00 85 1034.2
20201126104323 36 232 2.0 5.0 0.00 0.00 0.00 85 1034.0
20201126103831 36 200 1.0 3.0 0.00 0.00 0.00 85 1034.0
20201126103328 36 220 1.0 5.0 0.00 0.00 0.00 85 1034.0
20201126102829 36 273 1.0 3.0 0.00 0.00 0.00 86 1034.0
20201126102330 36 218 0.0 4.0 0.00 0.00 0.00 87 1034.1
20201126101818 36 193 0.0 5.0 0.00 0.00 0.00 87 1034.2
20201126101316 36 218 2.0 5.0 0.00 0.00 0.00 87 1033.9
20201126100819 36 85 0.0 1.0 0.00 0.00 0.00 88 1034.0
20201126100321 36 159 0.0 2.0 0.00 0.00 0.00 87 1034.1
20201126095823 36 152 1.0 4.0 0.00 0.00 0.00 87 1034.2
20201126095329 36 101 1.0 4.0 0.00 0.00 0.00 86 1034.1
20201126094828 36 230 0.0 3.0 0.00 0.00 0.00 88 1034.3
20201126094331 36 116 0.0 1.0 0.00 0.00 0.00 88 1034.4
20201126093816 36 145 0.0 1.0 0.00 0.00 0.00 87 1034.4
20201126093319 36 112 1.0 2.0 0.00 0.00 0.00 87 1034.4
20201126092828 36 220 1.0 2.0 0.00 0.00 0.00 88 1034.6
20201126092322 36 159 0.0 1.0 0.00 0.00 0.00 88 1034.5
20201126091825 36 136 0.0 1.0 0.00 0.00 0.00 89 1034.6
20201126091331 36 147 0.0 1.0 0.00 0.00 0.00 89 1034.5
20201126090815 36 160 0.0 2.0 0.00 0.00 0.00 89 1034.5
20201126090318 36 118 1.0 2.0 0.00 0.00 0.00 89 1034.5
20201126085821 36 112 0.0 2.0 0.00 0.00 0.00 89 1034.7
20201126085325 36 104 1.0 2.0 0.00 0.00 0.00 89 1034.6
20201126084830 36 89 0.0 2.0 0.00 0.00 0.00 90 1034.6
20201126084330 36 89 1.0 2.0 0.00 0.00 0.00 90 1034.5
20201126083831 36 135 0.0 1.0 0.00 0.00 0.00 90 1034.5
20201126083333 36 137 0.0 3.0 0.00 0.00 0.00 91 1034.6
20201126082815 36 132 1.0 3.0 0.00 0.00 0.00 91 1034.5
20201126082316 36 164 1.0 3.0 0.00 0.00 0.00 91 1034.6
20201126081819 36 121 1.0 3.0 0.00 0.00 0.00 91 1034.6
20201126081325 36 157 1.0 1.0 0.00 0.00 0.00 91 1034.6
20201126080824 36 159 0.0 2.0 0.00 0.00 0.00 92 1034.7
20201126080326 36 140 1.0 2.0 0.00 0.00 0.00 92 1034.8
20201126075829 36 197 0.0 2.0 0.00 0.00 0.00 92 1034.6
20201126075315 36 154 0.0 2.0 0.00 0.00 0.00 92 1034.6
20201126074824 36 102 0.0 1.0 0.00 0.00 0.00 92 1034.7
20201126074326 36 136 0.0 2.0 0.00 0.00 0.00 92 1034.7
20201126073828 36 218 0.0 2.0 0.00 0.00 0.00 92 1034.7
20201126073322 36 218 0.0 2.0 0.00 0.00 0.00 92 1034.8
20201126072825 36 117 0.0 1.0 0.00 0.00 0.00 92 1034.8
20201126072329 36 180 0.0 1.0 0.00 0.00 0.00 92 1034.7
20201126071832 36 194 0.0 2.0 0.00 0.00 0.00 92 1034.8
20201126071315 36 210 1.0 2.0 0.00 0.00 0.00 92 1034.9
20201126070817 36 219 1.0 3.0 0.00 0.00 0.00 92 1034.7
20201126070319 36 223 2.0 3.0 0.00 0.00 0.00 92 1034.7
20201126065829 36 232 2.0 3.0 0.00 0.00 0.00 92 1034.7
20201126065319 36 245 1.0 3.0 0.00 0.00 0.00 92 1034.9
20201126064819 36 222 1.0 6.0 0.00 0.00 0.00 92 1034.9
20201126064322 36 224 2.0 6.0 0.00 0.00 0.00 92 1034.9
20201126063823 36 213 2.0 4.0 0.00 0.00 0.00 92 1035.0
20201126063325 36 275 2.0 3.0 0.00 0.00 0.00 92 1034.9
20201126062839 36 220 2.0 5.0 0.00 0.00 0.00 92 1035.0
20201126062329 36 249 1.0 5.0 0.00 0.00 0.00 92 1035.1
20201126061823 36 248 1.0 4.0 0.00 0.00 0.00 92 1035.0
20201126061324 36 255 3.0 4.0 0.00 0.00 0.00 92 1035.0
20201126060817 36 244 2.0 4.0 0.00 0.00 0.00 92 1034.8
20201126060335 36 239 1.0 3.0 0.00 0.00 0.00 92 1035.0
20201126055828 36 236 2.0 3.0 0.00 0.00 0.00 93 1035.0
20201126055334 36 256 1.0 2.0 0.00 0.00 0.00 93 1035.0
20201126054813 36 246 0.0 2.0 0.00 0.00 0.00 93 1035.1
20201126054320 36 239 0.0 1.0 0.00 0.00 0.00 93 1035.2
20201126053819 36 239 0.0 0.0 0.00 0.00 0.00 93 1035.3
20201126053322 36 239 0.0 0.0 0.00 0.00 0.00 93 1035.2
20201126052823 36 239 0.0 0.0 0.00 0.00 0.00 93 1035.3
20201126052320 36 239 0.0 0.0 0.00 0.00 0.00 93 1035.2
20201126051822 36 239 0.0 0.0 0.00 0.00 0.00 93 1035.3
20201126051328 36 239 0.0 1.0 0.00 0.00 0.00 93 1035.2
20201126050831 36 239 0.0 1.0 0.00 0.00 0.00 92 1035.1
20201126050316 36 239 0.0 1.0 0.00 0.00 0.00 92 1035.2
20201126045820 36 164 0.0 1.0 0.00 0.00 0.00 93 1035.3
20201126045321 36 259 0.0 1.0 0.00 0.00 0.00 93 1035.4
20201126044823 36 260 0.0 1.0 0.00 0.00 0.00 93 1035.4
20201126044319 36 13 0.0 0.0 0.00 0.00 0.00 93 1035.3
20201126043815 36 13 0.0 1.0 0.00 0.00 0.00 93 1035.3
20201126043317 36 13 0.0 1.0 0.00 0.00 0.00 93 1035.4
20201126042819 36 13 0.0 1.0 0.00 0.00 0.00 93 1035.4
20201126042314 35 226 0.0 0.0 0.00 0.00 0.00 93 1035.4
20201126041817 35 226 0.0 0.0 0.00 0.00 0.00 93 1035.5
20201126041323 35 226 0.0 0.0 0.00 0.00 0.00 93 1035.5
20201126040826 35 226 0.0 1.0 0.00 0.00 0.00 93 1035.6
20201126040330 36 226 0.0 1.0 0.00 0.00 0.00 93 1035.5
20201126035827 36 226 0.0 0.0 0.00 0.00 0.00 93 1035.4
20201126035327 36 226 0.0 0.0 0.00 0.00 0.00 93 1035.3
20201126034831 36 226 0.0 0.0 0.00 0.00 0.00 93 1035.2
20201126034325 36 226 0.0 0.0 0.00 0.00 0.00 93 1035.1
20201126033827 36 226 0.0 1.0 0.00 0.00 0.00 93 1035.1
20201126033327 36 95 0.0 1.0 0.00 0.00 0.00 93 1035.0
20201126032831 36 348 0.0 1.0 0.00 0.00 0.00 92 1034.9
20201126032330 36 348 0.0 1.0 0.00 0.00 0.00 92 1034.9
20201126031819 36 348 0.0 1.0 0.00 0.00 0.00 92 1034.9
20201126031319 36 348 0.0 1.0 0.00 0.00 0.00 92 1034.9
20201126030820 36 348 0.0 1.0 0.00 0.00 0.00 92 1034.8
20201126030324 36 348 0.0 1.0 0.00 0.00 0.00 91 1034.8
20201126025819 36 348 0.0 0.0 0.00 0.00 0.00 91 1034.6
20201126025320 36 348 0.0 0.0 0.00 0.00 0.00 91 1034.6
20201126024817 36 348 0.0 1.0 0.00 0.00 0.00 91 1034.6
20201126024320 36 348 0.0 1.0 0.00 0.00 0.00 91 1034.5
20201126023822 36 348 0.0 0.0 0.00 0.00 0.00 91 1034.5
20201126023320 36 348 0.0 0.0 0.00 0.00 0.00 91 1034.6
20201126022829 36 348 0.0 0.0 0.00 0.00 0.00 91 1034.7
20201126022324 36 348 0.0 1.0 0.00 0.00 0.00 91 1034.7
20201126021829 36 348 0.0 1.0 0.00 0.00 0.00 91 1034.7
20201126021333 36 348 0.0 1.0 0.00 0.00 0.00 91 1034.6
20201126020812 36 348 0.0 0.0 0.00 0.00 0.00 91 1034.8
20201126020332 36 348 0.0 0.0 0.00 0.00 0.00 92 1034.8
20201126015815 36 348 0.0 0.0 0.00 0.00 0.00 92 1034.8
20201126015318 36 348 0.0 0.0 0.00 0.00 0.00 92 1034.8
20201126014817 36 348 0.0 0.0 0.00 0.00 0.00 92 1034.7
20201126014321 36 348 0.0 0.0 0.00 0.00 0.00 91 1034.7
20201126013824 36 348 0.0 0.0 0.00 0.00 0.00 91 1034.7
20201126013313 36 348 0.0 0.0 0.00 0.00 0.00 91 1034.6
20201126012813 36 348 0.0 0.0 0.00 0.00 0.00 91 1034.6
20201126012330 36 348 0.0 0.0 0.00 0.00 0.00 91 1034.6
20201126011817 36 348 0.0 0.0 0.00 0.00 0.00 91 1034.6
20201126011316 36 348 0.0 0.0 0.00 0.00 0.00 91 1034.7
20201126010818 36 348 0.0 0.0 0.00 0.00 0.00 91 1034.6
20201126010336 36 348 0.0 1.0 0.00 0.00 0.00 91 1034.6
20201126005817 36 348 0.0 1.0 0.00 0.00 0.00 91 1034.6
20201126005317 36 1 0.0 1.0 0.00 0.00 0.00 91 1034.7
20201126004823 36 1 0.0 1.0 0.00 0.00 0.00 91 1034.7
20201126004327 36 1 0.0 1.0 0.00 0.00 0.00 91 1034.7
20201126003825 36 1 0.0 1.0 0.00 0.00 0.00 91 1034.6
20201126003328 36 14 0.0 0.0 0.00 0.00 0.00 91 1034.5
20201126002813 36 14 0.0 0.0 0.00 0.00 0.00 91 1034.5
20201126002312 36 14 0.0 1.0 0.00 0.00 0.00 91 1034.4
20201126001814 36 14 0.0 1.0 0.00 0.00 0.00 90 1034.5
20201126001317 36 14 0.0 2.0 0.00 0.00 0.00 90 1034.3
20201126000831 36 14 1.0 2.0 0.00 0.00 0.00 90 1034.3
20201126000327 36 33 1.0 1.0 0.00 0.00 0.00 90 1034.3
20201125235828 36 45 0.0 2.0 0.00 0.00 0.00 90 1034.3
20201125235330 36 39 1.0 3.0 0.00 0.00 0.00 90 1034.5
20201125234831 36 26 2.0 3.0 0.00 0.00 0.00 90 1034.5
20201125234312 36 357 0.0 2.0 0.00 0.00 0.00 91 1034.5
20201125233818 36 55 1.0 3.0 0.00 0.00 0.00 91 1034.4
20201125233330 36 50 2.0 3.0 0.00 0.00 0.00 91 1034.2
20201125232813 36 47 2.0 3.0 0.00 0.00 0.00 91 1034.3
20201125232320 36 40 2.0 3.0 0.00 0.00 0.00 91 1034.2
20201125231823 36 42 2.0 5.0 0.00 0.00 0.00 91 1034.1
20201125231324 36 50 3.0 6.0 0.00 0.00 0.00 91 1034.0
20201125230828 36 50 3.0 6.0 0.00 0.00 0.00 90 1033.8
20201125230312 36 59 3.0 4.0 0.00 0.00 0.00 91 1033.9
20201125225815 36 48 1.0 3.0 0.00 0.00 0.00 90 1034.0
20201125225317 36 4 1.0 3.0 0.00 0.00 0.00 90 1034.2
20201125224815 36 347 1.0 3.0 0.00 0.00 0.00 90 1034.2
20201125224319 36 348 2.0 4.0 0.00 0.00 0.00 90 1034.3
20201125223826 36 11 2.0 4.0 0.00 0.00 0.00 90 1034.3
20201125223322 36 342 1.0 3.0 0.00 0.00 0.00 90 1034.3
20201125222826 36 322 1.0 3.0 0.00 0.00 0.00 90 1034.4
20201125222327 36 333 0.0 3.0 0.00 0.00 0.00 90 1034.5
20201125221828 36 322 1.0 4.0 0.00 0.00 0.00 90 1034.4
20201125221331 37 355 1.0 5.0 0.00 0.00 0.00 90 1034.5
20201125220828 37 322 1.0 5.0 0.00 0.00 0.00 90 1034.5
20201125220329 37 328 1.0 4.0 0.00 0.00 0.00 89 1034.5
20201125215816 37 316 1.0 5.0 0.00 0.00 0.00 89 1034.5
20201125215329 37 306 2.0 5.0 0.00 0.00 0.00 89 1034.5
20201125214813 37 339 2.0 4.0 0.00 0.00 0.00 89 1034.4
20201125214312 37 313 2.0 5.0 0.00 0.00 0.00 89 1034.4
20201125213815 37 311 2.0 6.0 0.00 0.00 0.00 89 1034.4
20201125213324 37 329 1.0 4.0 0.00 0.00 0.00 89 1034.3
20201125212826 37 338 2.0 4.0 0.00 0.00 0.00 89 1034.2
20201125212322 37 314 1.0 4.0 0.00 0.00 0.00 89 1034.1
20201125211825 37 309 1.0 5.0 0.00 0.00 0.00 89 1034.0
20201125211331 37 319 2.0 5.0 0.00 0.00 0.00 89 1034.0
20201125210842 37 310 1.0 4.0 0.00 0.00 0.00 89 1034.0